GMTAGMFK

Guest
Details From GMTA - CHERIF EL IDRISSI
To GMFK - MOULAY ALI CHERIF
Flight Number -
Tags generated
Created
Modified
Stats Distance 222 nm / 411 km
Max Altitude 26,200 ft / 7,986 m
Waypoints 4
Social Downloads 0
Likes 0
Share VATSIM

Download

Looking for another format? Having issues loading an existing format? Contact us
Advertisement - Login to hide

Notes

Basic altitude profile: - Ascent Rate: 2500ft/min - Ascent Speed: 250kts - Cruise Altitude: 4500ft - Cruise Speed: 420kts - Descent Rate: 1500ft/min - Descent Speed: 250kts Options: - Use NATs: no - Use PACOTS: no - Use low airways: yes - Use high airways: no

Route

GMTA FES W240F ERA GMFK

ID Type Via Altitude (ft/m) Position (lat/lon) Dist (leg/tot) Name
O GMTA APT - 0 / 0 35.17730 / -3.83956 - / 0 nm CHERIF EL IDRISSI
FES VOR - 26,200 / 7,986 33.92750 / -5.01361 94 / 94 nm SAISS VOR-DME
ERA VOR W240F (AWY-LO) 17,500 / 5,334 31.92417 / -4.36056 124 / 219 nm ERRACHIDIA VOR-DME
O GMFK APT - 0 / 0 31.94825 / -4.40096 2 / 222 nm MOULAY ALI CHERIF

Altitude Profile

Advertisement - Login to hide

Weather


0- 5 10 15 20 25 30 35+ Temperature / °C

Clouds and Precipitation
Forecast for 2019-03-26 18:00 UTC. Updated 3 hours ago

Ground ~20,000 ft ~40,000 ft Winds

GMTA

Details ICAO GMTA (AHU)
Name CHERIF EL IDRISSI
Region Morocco
Timezone Africa/Casablanca (UTC+0.0)
Stats Elevation 95 ft / 29 m (AMSL)
Location 35.177300° -3.839560°
Runways 1
Magnetic Variation 0.555° W

METAR

GMTA 261800Z 08012G24KT FEW020 BKN026 17/11 Q1014 NOSIG

Decode

TAF

TAF GMTA 261700Z 2618/2724 06016G30KT 6000 SCT020 BKN026 PROB40 TEMPO 2622/2709 5000 TSRA

Decode

Departure Runways

ID Width Length Bearing (true/mag) Surface Threshold Overrun Markings Lighting
18 148 ft / 45 m 8,234 ft / 2,510 m 172.65° / 173.20° ASPHALT 0 ft / 0 m 0 ft / 0 m APP EDGE THRESHOLD
36 148 ft / 45 m 8,234 ft / 2,510 m 352.65° / 353.20° ASPHALT 0 ft / 0 m 0 ft / 0 m APP EDGE THRESHOLD

GMFK

Details ICAO GMFK (ERH)
Name MOULAY ALI CHERIF
Region Morocco
Timezone Africa/Casablanca (UTC+0.0)
Stats Elevation 3,428 ft / 1,045 m (AMSL)
Location 31.948300° -4.400950°
Runways 1
Magnetic Variation 0.788° W

METAR

GMFK 261800Z 23004KT 210V280 9999 SCT026 FEW036CB SCT080 21/01 Q1010 NOSIG

Decode

TAF

TAF GMFK 261700Z 2618/2724 27006KT 9999 FEW026 SCT080

Decode

Destination Runways

ID Width Length Bearing (true/mag) Surface Threshold Overrun Markings Lighting
13 148 ft / 45 m 10,576 ft / 3,224 m 125.08° / 125.87° ASPHALT 0 ft / 0 m 0 ft / 0 m APP EDGE THRESHOLD
31 148 ft / 45 m 10,576 ft / 3,224 m 305.10° / 305.88° ASPHALT 0 ft / 0 m 0 ft / 0 m APP EDGE THRESHOLD

Popular Alternatives